| time (UTC) | temp F | wind direction | speed MPH | gust MPH | rain 1hr in | rain 24hr in | rain mn in | humidity % | barometer mb |
| 20260903233529 | 103 | 0 | 0.0 | 1.0 | 0.00 | 0.00 | 0.00 | 19 | 1007.9 |
| 20260903233058 | 103 | 0 | 0.0 | 1.0 | 0.00 | 0.00 | 0.00 | 19 | 1007.8 |
| 20260903232528 | 104 | 0 | 0.0 | 1.0 | 0.00 | 0.00 | 0.00 | 19 | 1007.8 |
| 20260903232031 | 104 | 0 | 0.0 | 1.0 | 0.00 | 0.00 | 0.00 | 19 | 1007.8 |
| 20260903231552 | 104 | 0 | 0.0 | 0.0 | 0.00 | 0.00 | 0.00 | 19 | 1007.9 |
| 20260903231027 | 104 | 0 | 0.0 | 0.0 | 0.00 | 0.00 | 0.00 | 19 | 1007.8 |
| 20260903230530 | 104 | 0 | 0.0 | 0.0 | 0.00 | 0.00 | 0.00 | 19 | 1007.9 |
| 20260903230051 | 103 | 0 | 0.0 | 0.0 | 0.00 | 0.00 | 0.00 | 19 | 1008.0 |
| 20260903225531 | 103 | 0 | 0.0 | 2.0 | 0.00 | 0.00 | 0.00 | 19 | 1008.0 |
| 20260903225031 | 103 | 0 | 0.0 | 2.0 | 0.00 | 0.00 | 0.00 | 19 | 1008.1 |
| 20260903224611 | 103 | 0 | 0.0 | 2.0 | 0.00 | 0.00 | 0.00 | 19 | 1008.3 |
| 20260903224030 | 103 | 0 | 0.0 | 2.0 | 0.00 | 0.00 | 0.00 | 19 | 1008.3 |
| 20260903223530 | 103 | 0 | 0.0 | 1.0 | 0.00 | 0.00 | 0.00 | 19 | 1008.3 |
| 20260903223101 | 102 | 0 | 0.0 | 0.0 | 0.00 | 0.00 | 0.00 | 20 | 1008.3 |
| 20260903222535 | 102 | 0 | 0.0 | 0.0 | 0.00 | 0.00 | 0.00 | 19 | 1008.5 |
| 20260903222030 | 102 | 0 | 0.0 | 0.0 | 0.00 | 0.00 | 0.00 | 21 | 1008.5 |
| 20260903221600 | 102 | 0 | 0.0 | 0.0 | 0.00 | 0.00 | 0.00 | 21 | 1008.7 |
| 20260903221033 | 102 | 0 | 0.0 | 0.0 | 0.00 | 0.00 | 0.00 | 21 | 1008.8 |
| 20260903220534 | 102 | 0 | 0.0 | 0.0 | 0.00 | 0.00 | 0.00 | 22 | 1008.9 |
| 20260903220059 | 102 | 0 | 0.0 | 0.0 | 0.00 | 0.00 | 0.00 | 21 | 1008.9 |
| 20260903215534 | 102 | 0 | 0.0 | 0.0 | 0.00 | 0.00 | 0.00 | 21 | 1009.0 |
| 20260903215033 | 102 | 0 | 0.0 | 1.0 | 0.00 | 0.00 | 0.00 | 21 | 1009.0 |
| 20260903214609 | 102 | 0 | 0.0 | 1.0 | 0.00 | 0.00 | 0.00 | 21 | 1009.1 |
| 20260903214032 | 102 | 0 | 0.0 | 0.0 | 0.00 | 0.00 | 0.00 | 21 | 1009.2 |
| 20260903213531 | 102 | 0 | 0.0 | 0.0 | 0.00 | 0.00 | 0.00 | 21 | 1009.2 |
| 20260903213107 | 102 | 0 | 0.0 | 0.0 | 0.00 | 0.00 | 0.00 | 21 | 1009.4 |
| 20260903212533 | 101 | 0 | 0.0 | 0.0 | 0.00 | 0.00 | 0.00 | 21 | 1009.5 |
| 20260903212034 | 102 | 0 | 0.0 | 0.0 | 0.00 | 0.00 | 0.00 | 22 | 1009.5 |
| 20260903211605 | 102 | 0 | 0.0 | 0.0 | 0.00 | 0.00 | 0.00 | 22 | 1009.7 |
| 20260903211030 | 102 | 0 | 0.0 | 1.0 | 0.00 | 0.00 | 0.00 | 22 | 1009.7 |
| 20260903210530 | 102 | 0 | 0.0 | 1.0 | 0.00 | 0.00 | 0.00 | 22 | 1009.7 |
| 20260903210125 | 102 | 0 | 0.0 | 0.0 | 0.00 | 0.00 | 0.00 | 21 | 1009.8 |
| 20260903205531 | 102 | 0 | 0.0 | 0.0 | 0.00 | 0.00 | 0.00 | 22 | 1009.9 |
| 20260903205032 | 102 | 0 | 0.0 | 1.0 | 0.00 | 0.00 | 0.00 | 21 | 1009.9 |
| 20260903204552 | 102 | 0 | 0.0 | 1.0 | 0.00 | 0.00 | 0.00 | 21 | 1010.0 |
| 20260903204031 | 102 | 0 | 0.0 | 3.0 | 0.00 | 0.00 | 0.00 | 21 | 1010.1 |
| 20260903203531 | 102 | 0 | 0.0 | 3.0 | 0.00 | 0.00 | 0.00 | 21 | 1010.2 |
| 20260903203113 | 102 | 19 | 0.0 | 0.0 | 0.00 | 0.00 | 0.00 | 22 | 1010.1 |
| 20260903202531 | 102 | 0 | 0.0 | 0.0 | 0.00 | 0.00 | 0.00 | 23 | 1010.3 |
| 20260903202031 | 102 | 0 | 0.0 | 0.0 | 0.00 | 0.00 | 0.00 | 22 | 1010.4 |
| 20260903201558 | 102 | 0 | 0.0 | 0.0 | 0.00 | 0.00 | 0.00 | 22 | 1010.6 |
| 20260903201030 | 102 | 0 | 0.0 | 0.0 | 0.00 | 0.00 | 0.00 | 22 | 1010.6 |
| 20260903200530 | 102 | 0 | 0.0 | 0.0 | 0.00 | 0.00 | 0.00 | 23 | 1010.7 |
| 20260903200056 | 101 | 0 | 0.0 | 1.0 | 0.00 | 0.00 | 0.00 | 23 | 1010.8 |
| 20260903195530 | 101 | 0 | 0.0 | 1.0 | 0.00 | 0.00 | 0.00 | 23 | 1010.8 |
| 20260903195030 | 101 | 0 | 0.0 | 1.0 | 0.00 | 0.00 | 0.00 | 23 | 1010.8 |
| 20260903194552 | 101 | 0 | 0.0 | 0.0 | 0.00 | 0.00 | 0.00 | 23 | 1010.9 |
| 20260903194031 | 101 | 0 | 0.0 | 0.0 | 0.00 | 0.00 | 0.00 | 23 | 1011.0 |
| 20260903193530 | 100 | 0 | 0.0 | 1.0 | 0.00 | 0.00 | 0.00 | 23 | 1011.0 |
| 20260903193054 | 100 | 0 | 0.0 | 1.0 | 0.00 | 0.00 | 0.00 | 24 | 1011.1 |
| 20260903192529 | 99 | 0 | 0.0 | 0.0 | 0.00 | 0.00 | 0.00 | 24 | 1011.2 |
| 20260903192030 | 99 | 0 | 0.0 | 0.0 | 0.00 | 0.00 | 0.00 | 24 | 1011.4 |
| 20260903191546 | 99 | 0 | 0.0 | 1.0 | 0.00 | 0.00 | 0.00 | 24 | 1011.4 |
| 20260903191030 | 99 | 0 | 0.0 | 1.0 | 0.00 | 0.00 | 0.00 | 24 | 1011.5 |
| 20260903190529 | 99 | 0 | 0.0 | 0.0 | 0.00 | 0.00 | 0.00 | 25 | 1011.6 |
| 20260903190057 | 99 | 0 | 0.0 | 0.0 | 0.00 | 0.00 | 0.00 | 25 | 1011.8 |
| 20260903185531 | 99 | 0 | 0.0 | 1.0 | 0.00 | 0.00 | 0.00 | 25 | 1011.9 |
| 20260903185030 | 98 | 0 | 0.0 | 1.0 | 0.00 | 0.00 | 0.00 | 25 | 1012.0 |
| 20260903184552 | 98 | 0 | 0.0 | 1.0 | 0.00 | 0.00 | 0.00 | 25 | 1012.0 |
| 20260903184029 | 98 | 0 | 0.0 | 0.0 | 0.00 | 0.00 | 0.00 | 26 | 1012.2 |
| 20260903183527 | 97 | 0 | 0.0 | 3.0 | 0.00 | 0.00 | 0.00 | 25 | 1012.2 |
| 20260903183050 | 97 | 0 | 0.0 | 3.0 | 0.00 | 0.00 | 0.00 | 26 | 1012.3 |
| 20260903182528 | 97 | 0 | 0.0 | 1.0 | 0.00 | 0.00 | 0.00 | 27 | 1012.4 |
| 20260903182029 | 97 | 0 | 0.0 | 1.0 | 0.00 | 0.00 | 0.00 | 27 | 1012.4 |
| 20260903181547 | 96 | 0 | 0.0 | 0.0 | 0.00 | 0.00 | 0.00 | 27 | 1012.5 |
| 20260903181031 | 96 | 0 | 0.0 | 1.0 | 0.00 | 0.00 | 0.00 | 27 | 1012.6 |
| 20260903180530 | 96 | 0 | 0.0 | 1.0 | 0.00 | 0.00 | 0.00 | 28 | 1012.7 |
| 20260903180055 | 96 | 0 | 0.0 | 1.0 | 0.00 | 0.00 | 0.00 | 28 | 1012.8 |
| 20260903175528 | 96 | 0 | 0.0 | 1.0 | 0.00 | 0.00 | 0.00 | 29 | 1012.9 |
| 20260903175030 | 95 | 0 | 0.0 | 1.0 | 0.00 | 0.00 | 0.00 | 29 | 1013.0 |
| 20260903174555 | 95 | 0 | 0.0 | 0.0 | 0.00 | 0.00 | 0.00 | 30 | 1013.0 |
| 20260903174030 | 95 | 0 | 0.0 | 0.0 | 0.00 | 0.00 | 0.00 | 30 | 1013.0 |
| 20260903173534 | 95 | 0 | 0.0 | 0.0 | 0.00 | 0.00 | 0.00 | 31 | 1013.1 |
| 20260903173049 | 95 | 0 | 0.0 | 0.0 | 0.00 | 0.00 | 0.00 | 31 | 1013.2 |
| 20260903172531 | 94 | 0 | 0.0 | 0.0 | 0.00 | 0.00 | 0.00 | 31 | 1013.3 |
| 20260903172028 | 94 | 0 | 0.0 | 0.0 | 0.00 | 0.00 | 0.00 | 32 | 1013.2 |
| 20260903171558 | 94 | 0 | 0.0 | 0.0 | 0.00 | 0.00 | 0.00 | 31 | 1013.3 |
| 20260903171028 | 94 | 0 | 0.0 | 0.0 | 0.00 | 0.00 | 0.00 | 31 | 1013.3 |
| 20260903170528 | 93 | 0 | 0.0 | 0.0 | 0.00 | 0.00 | 0.00 | 33 | 1013.3 |
| 20260903170055 | 93 | 0 | 0.0 | 0.0 | 0.00 | 0.00 | 0.00 | 33 | 1013.3 |
| 20260903165529 | 93 | 0 | 0.0 | 0.0 | 0.00 | 0.00 | 0.00 | 33 | 1013.3 |
| 20260903165028 | 92 | 0 | 0.0 | 0.0 | 0.00 | 0.00 | 0.00 | 35 | 1013.3 |
| 20260903164552 | 92 | 0 | 0.0 | 0.0 | 0.00 | 0.00 | 0.00 | 35 | 1013.4 |
| 20260903164031 | 92 | 0 | 0.0 | 0.0 | 0.00 | 0.00 | 0.00 | 35 | 1013.5 |
| 20260903163528 | 92 | 0 | 0.0 | 0.0 | 0.00 | 0.00 | 0.00 | 36 | 1013.4 |
| 20260903163047 | 91 | 0 | 0.0 | 0.0 | 0.00 | 0.00 | 0.00 | 37 | 1013.3 |
| 20260903162532 | 91 | 0 | 0.0 | 0.0 | 0.00 | 0.00 | 0.00 | 36 | 1013.3 |
| 20260903162032 | 91 | 0 | 0.0 | 0.0 | 0.00 | 0.00 | 0.00 | 38 | 1013.3 |
| 20260903161557 | 90 | 0 | 0.0 | 0.0 | 0.00 | 0.00 | 0.00 | 38 | 1013.4 |
| 20260903161032 | 90 | 0 | 0.0 | 0.0 | 0.00 | 0.00 | 0.00 | 39 | 1013.5 |
| 20260903160533 | 90 | 0 | 0.0 | 0.0 | 0.00 | 0.00 | 0.00 | 40 | 1013.5 |
| 20260903160059 | 89 | 0 | 0.0 | 0.0 | 0.00 | 0.00 | 0.00 | 41 | 1013.5 |
| 20260903155533 | 89 | 0 | 0.0 | 0.0 | 0.00 | 0.00 | 0.00 | 41 | 1013.4 |
| 20260903155035 | 89 | 0 | 0.0 | 0.0 | 0.00 | 0.00 | 0.00 | 43 | 1013.5 |
| 20260903154603 | 88 | 0 | 0.0 | 0.0 | 0.00 | 0.00 | 0.00 | 44 | 1013.5 |
| 20260903154032 | 88 | 0 | 0.0 | 0.0 | 0.00 | 0.00 | 0.00 | 45 | 1013.6 |
| 20260903153532 | 87 | 0 | 0.0 | 0.0 | 0.00 | 0.00 | 0.00 | 46 | 1013.6 |
| 20260903153057 | 87 | 0 | 0.0 | 0.0 | 0.00 | 0.00 | 0.00 | 47 | 1013.6 |
| 20260903152530 | 87 | 0 | 0.0 | 0.0 | 0.00 | 0.00 | 0.00 | 48 | 1013.6 |
| 20260903152032 | 86 | 0 | 0.0 | 0.0 | 0.00 | 0.00 | 0.00 | 50 | 1013.6 |
| 20260903151555 | 86 | 0 | 0.0 | 0.0 | 0.00 | 0.00 | 0.00 | 51 | 1013.6 |
| 20260903151031 | 85 | 0 | 0.0 | 0.0 | 0.00 | 0.00 | 0.00 | 50 | 1013.6 |
| 20260903150531 | 85 | 0 | 0.0 | 0.0 | 0.00 | 0.00 | 0.00 | 50 | 1013.5 |
| 20260903150050 | 84 | 0 | 0.0 | 0.0 | 0.00 | 0.00 | 0.00 | 51 | 1013.5 |
| 20260903145533 | 84 | 0 | 0.0 | 0.0 | 0.00 | 0.00 | 0.00 | 52 | 1013.6 |
| 20260903145031 | 84 | 0 | 0.0 | 0.0 | 0.00 | 0.00 | 0.00 | 52 | 1013.6 |
| 20260903144547 | 84 | 0 | 0.0 | 0.0 | 0.00 | 0.00 | 0.00 | 53 | 1013.6 |
| 20260903144034 | 84 | 0 | 0.0 | 0.0 | 0.00 | 0.00 | 0.00 | 53 | 1013.6 |
| 20260903143530 | 84 | 0 | 0.0 | 0.0 | 0.00 | 0.00 | 0.00 | 53 | 1013.5 |
| 20260903143106 | 84 | 0 | 0.0 | 0.0 | 0.00 | 0.00 | 0.00 | 53 | 1013.5 |
| 20260903142532 | 84 | 0 | 0.0 | 0.0 | 0.00 | 0.00 | 0.00 | 53 | 1013.5 |
| 20260903142033 | 84 | 0 | 0.0 | 0.0 | 0.00 | 0.00 | 0.00 | 53 | 1013.5 |
| 20260903141603 | 84 | 0 | 0.0 | 0.0 | 0.00 | 0.00 | 0.00 | 54 | 1013.4 |
| 20260903141032 | 83 | 0 | 0.0 | 0.0 | 0.00 | 0.00 | 0.00 | 54 | 1013.3 |
| 20260903140530 | 83 | 0 | 0.0 | 0.0 | 0.00 | 0.00 | 0.00 | 54 | 1013.3 |
| 20260903140049 | 83 | 0 | 0.0 | 0.0 | 0.00 | 0.00 | 0.00 | 54 | 1013.3 |
| 20260903135531 | 83 | 0 | 0.0 | 0.0 | 0.00 | 0.00 | 0.00 | 54 | 1013.2 |
| 20260903135032 | 83 | 0 | 0.0 | 0.0 | 0.00 | 0.00 | 0.00 | 54 | 1013.2 |
| 20260903134600 | 83 | 0 | 0.0 | 0.0 | 0.00 | 0.00 | 0.00 | 54 | 1013.1 |
| 20260903134031 | 83 | 0 | 0.0 | 0.0 | 0.00 | 0.00 | 0.00 | 54 | 1013.1 |
| 20260903133530 | 83 | 0 | 0.0 | 0.0 | 0.00 | 0.00 | 0.00 | 54 | 1013.0 |
| 20260903133057 | 83 | 0 | 0.0 | 0.0 | 0.00 | 0.00 | 0.00 | 54 | 1013.0 |
| 20260903132530 | 83 | 0 | 0.0 | 0.0 | 0.00 | 0.00 | 0.00 | 55 | 1012.8 |
| 20260903132032 | 83 | 0 | 0.0 | 0.0 | 0.00 | 0.00 | 0.00 | 54 | 1012.9 |
| 20260903131556 | 83 | 0 | 0.0 | 0.0 | 0.00 | 0.00 | 0.00 | 54 | 1012.9 |
| 20260903131033 | 83 | 0 | 0.0 | 0.0 | 0.00 | 0.00 | 0.00 | 53 | 1012.8 |
| 20260903130533 | 84 | 0 | 0.0 | 0.0 | 0.00 | 0.00 | 0.00 | 53 | 1012.8 |
| 20260903130049 | 84 | 0 | 0.0 | 0.0 | 0.00 | 0.00 | 0.00 | 53 | 1012.8 |
| 20260903125532 | 84 | 0 | 0.0 | 0.0 | 0.00 | 0.00 | 0.00 | 53 | 1012.7 |
| 20260903125030 | 84 | 0 | 0.0 | 0.0 | 0.00 | 0.00 | 0.00 | 53 | 1012.5 |
| 20260903124548 | 84 | 0 | 0.0 | 0.0 | 0.00 | 0.00 | 0.00 | 52 | 1012.5 |
| 20260903124032 | 84 | 0 | 0.0 | 0.0 | 0.00 | 0.00 | 0.00 | 52 | 1012.5 |
| 20260903123531 | 84 | 0 | 0.0 | 0.0 | 0.00 | 0.00 | 0.00 | 52 | 1012.5 |
| 20260903123055 | 84 | 0 | 0.0 | 0.0 | 0.00 | 0.00 | 0.00 | 52 | 1012.5 |
| 20260903122531 | 84 | 0 | 0.0 | 0.0 | 0.00 | 0.00 | 0.00 | 52 | 1012.4 |
| 20260903122032 | 84 | 0 | 0.0 | 0.0 | 0.00 | 0.00 | 0.00 | 52 | 1012.3 |
| 20260903121552 | 84 | 0 | 0.0 | 0.0 | 0.00 | 0.00 | 0.00 | 52 | 1012.2 |
| 20260903121030 | 84 | 0 | 0.0 | 0.0 | 0.00 | 0.00 | 0.00 | 52 | 1012.3 |
| 20260903120532 | 84 | 0 | 0.0 | 0.0 | 0.00 | 0.00 | 0.00 | 52 | 1012.2 |
| 20260903120106 | 84 | 0 | 0.0 | 0.0 | 0.00 | 0.00 | 0.00 | 51 | 1012.2 |
| 20260903115531 | 84 | 0 | 0.0 | 0.0 | 0.00 | 0.00 | 0.00 | 51 | 1012.2 |
| 20260903115031 | 84 | 0 | 0.0 | 0.0 | 0.00 | 0.00 | 0.00 | 51 | 1012.3 |
| 20260903114602 | 84 | 0 | 0.0 | 0.0 | 0.00 | 0.00 | 0.00 | 50 | 1012.2 |
| 20260903114032 | 84 | 0 | 0.0 | 0.0 | 0.00 | 0.00 | 0.00 | 50 | 1012.2 |
| 20260903113530 | 85 | 0 | 0.0 | 0.0 | 0.00 | 0.00 | 0.00 | 50 | 1012.1 |
| 20260903113056 | 85 | 0 | 0.0 | 0.0 | 0.00 | 0.00 | 0.00 | 49 | 1012.2 |
| 20260903112532 | 85 | 0 | 0.0 | 0.0 | 0.00 | 0.00 | 0.00 | 49 | 1012.2 |
| 20260903112032 | 85 | 0 | 0.0 | 0.0 | 0.00 | 0.00 | 0.00 | 49 | 1012.1 |
| 20260903111554 | 85 | 0 | 0.0 | 0.0 | 0.00 | 0.00 | 0.00 | 49 | 1012.1 |
| 20260903111029 | 85 | 0 | 0.0 | 0.0 | 0.00 | 0.00 | 0.00 | 48 | 1012.0 |
| 20260903110532 | 85 | 0 | 0.0 | 0.0 | 0.00 | 0.00 | 0.00 | 48 | 1012.0 |
| 20260903110055 | 86 | 0 | 0.0 | 0.0 | 0.00 | 0.00 | 0.00 | 47 | 1012.1 |
| 20260903105531 | 86 | 0 | 0.0 | 0.0 | 0.00 | 0.00 | 0.00 | 47 | 1012.0 |
| 20260903105030 | 86 | 0 | 0.0 | 0.0 | 0.00 | 0.00 | 0.00 | 47 | 1012.0 |
| 20260903104553 | 86 | 0 | 0.0 | 0.0 | 0.00 | 0.00 | 0.00 | 47 | 1012.0 |
| 20260903104029 | 86 | 0 | 0.0 | 0.0 | 0.00 | 0.00 | 0.00 | 47 | 1012.0 |
| 20260903103531 | 86 | 0 | 0.0 | 0.0 | 0.00 | 0.00 | 0.00 | 47 | 1011.9 |
| 20260903103050 | 86 | 0 | 0.0 | 0.0 | 0.00 | 0.00 | 0.00 | 47 | 1012.0 |
| 20260903102532 | 87 | 0 | 0.0 | 0.0 | 0.00 | 0.00 | 0.00 | 46 | 1012.1 |
| 20260903102031 | 87 | 0 | 0.0 | 0.0 | 0.00 | 0.00 | 0.00 | 46 | 1012.0 |
| 20260903101605 | 87 | 0 | 0.0 | 0.0 | 0.00 | 0.00 | 0.00 | 45 | 1012.0 |
| 20260903101029 | 87 | 0 | 0.0 | 0.0 | 0.00 | 0.00 | 0.00 | 45 | 1012.1 |
| 20260903100531 | 87 | 0 | 0.0 | 0.0 | 0.00 | 0.00 | 0.00 | 45 | 1012.2 |
| 20260903100053 | 87 | 0 | 0.0 | 0.0 | 0.00 | 0.00 | 0.00 | 44 | 1012.2 |
| 20260903095530 | 87 | 0 | 0.0 | 0.0 | 0.00 | 0.00 | 0.00 | 44 | 1012.3 |
| 20260903095033 | 87 | 0 | 0.0 | 0.0 | 0.00 | 0.00 | 0.00 | 44 | 1012.3 |
| 20260903094605 | 88 | 0 | 0.0 | 0.0 | 0.00 | 0.00 | 0.00 | 44 | 1012.2 |
| 20260903094033 | 88 | 0 | 0.0 | 0.0 | 0.00 | 0.00 | 0.00 | 43 | 1012.2 |
| 20260903093529 | 88 | 0 | 0.0 | 0.0 | 0.00 | 0.00 | 0.00 | 43 | 1012.3 |
| 20260903093108 | 88 | 0 | 0.0 | 0.0 | 0.00 | 0.00 | 0.00 | 43 | 1012.2 |
| 20260903092531 | 88 | 0 | 0.0 | 0.0 | 0.00 | 0.00 | 0.00 | 42 | 1012.2 |
| 20260903092030 | 88 | 0 | 0.0 | 0.0 | 0.00 | 0.00 | 0.00 | 41 | 1012.2 |
| 20260903091547 | 88 | 0 | 0.0 | 0.0 | 0.00 | 0.00 | 0.00 | 41 | 1012.3 |
| 20260903091032 | 88 | 0 | 0.0 | 0.0 | 0.00 | 0.00 | 0.00 | 40 | 1012.2 |
| 20260903090530 | 88 | 0 | 0.0 | 0.0 | 0.00 | 0.00 | 0.00 | 39 | 1012.1 |
| 20260903090059 | 88 | 0 | 0.0 | 0.0 | 0.00 | 0.00 | 0.00 | 38 | 1012.1 |
| 20260903085531 | 88 | 0 | 0.0 | 0.0 | 0.00 | 0.00 | 0.00 | 38 | 1012.2 |
| 20260903085031 | 88 | 0 | 0.0 | 1.0 | 0.00 | 0.00 | 0.00 | 38 | 1012.2 |
| 20260903084557 | 88 | 0 | 0.0 | 1.0 | 0.00 | 0.00 | 0.00 | 36 | 1012.2 |
| 20260903084032 | 88 | 0 | 0.0 | 1.0 | 0.00 | 0.00 | 0.00 | 36 | 1012.1 |
| 20260903083532 | 88 | 0 | 0.0 | 0.0 | 0.00 | 0.00 | 0.00 | 35 | 1012.1 |
| 20260903083053 | 88 | 0 | 0.0 | 0.0 | 0.00 | 0.00 | 0.00 | 33 | 1012.0 |
| 20260903082528 | 88 | 0 | 0.0 | 0.0 | 0.00 | 0.00 | 0.00 | 32 | 1012.1 |
| 20260903082032 | 89 | 0 | 0.0 | 0.0 | 0.00 | 0.00 | 0.00 | 32 | 1012.0 |
| 20260903081550 | 89 | 0 | 0.0 | 0.0 | 0.00 | 0.00 | 0.00 | 31 | 1012.1 |
| 20260903081031 | 88 | 0 | 0.0 | 0.0 | 0.00 | 0.00 | 0.00 | 31 | 1012.0 |
| 20260903080531 | 88 | 0 | 0.0 | 0.0 | 0.00 | 0.00 | 0.00 | 31 | 1012.1 |
| 20260903080049 | 88 | 0 | 0.0 | 1.0 | 0.00 | 0.00 | 0.00 | 31 | 1012.0 |
| 20260903075534 | 88 | 0 | 0.0 | 1.0 | 0.00 | 0.00 | 0.00 | 29 | 1012.0 |
| 20260903075032 | 88 | 0 | 0.0 | 0.0 | 0.00 | 0.00 | 0.00 | 27 | 1012.1 |
| 20260903074556 | 88 | 0 | 0.0 | 0.0 | 0.00 | 0.00 | 0.00 | 25 | 1012.0 |
| 20260903074032 | 87 | 0 | 0.0 | 0.0 | 0.00 | 0.00 | 0.00 | 24 | 1012.1 |
| 20260903073531 | 87 | 0 | 0.0 | 0.0 | 0.00 | 0.00 | 0.00 | 23 | 1012.0 |
| 20260903073056 | 87 | 0 | 0.0 | 0.0 | 0.00 | 0.00 | 0.00 | 22 | 1011.9 |
| 20260903072531 | 87 | 0 | 0.0 | 0.0 | 0.00 | 0.00 | 0.00 | 22 | 1011.9 |
| 20260903072036 | 87 | 0 | 0.0 | 0.0 | 0.00 | 0.00 | 0.00 | 21 | 1011.9 |
| 20260903071550 | 88 | 0 | 0.0 | 0.0 | 0.00 | 0.00 | 0.00 | 22 | 1011.9 |
| 20260903071030 | 88 | 0 | 0.0 | 0.0 | 0.00 | 0.00 | 0.00 | 23 | 1011.9 |
| 20260903070530 | 88 | 0 | 0.0 | 0.0 | 0.00 | 0.00 | 0.00 | 23 | 1011.8 |
| 20260903065531 | 89 | 0 | 0.0 | 0.0 | 0.00 | 0.00 | 0.00 | 22 | 1011.7 |
| 20260903065031 | 89 | 0 | 0.0 | 0.0 | 0.00 | 0.00 | 0.00 | 22 | 1011.7 |
| 20260903064557 | 89 | 0 | 0.0 | 0.0 | 0.00 | 0.00 | 0.00 | 21 | 1011.5 |
| 20260903064030 | 89 | 0 | 0.0 | 0.0 | 0.00 | 0.00 | 0.00 | 21 | 1011.5 |
| 20260903063529 | 89 | 0 | 0.0 | 0.0 | 0.00 | 0.00 | 0.00 | 20 | 1011.4 |
| 20260903063114 | 89 | 0 | 0.0 | 0.0 | 0.00 | 0.00 | 0.00 | 20 | 1011.5 |
| 20260903062532 | 90 | 0 | 0.0 | 0.0 | 0.00 | 0.00 | 0.00 | 20 | 1011.6 |
| 20260903062035 | 90 | 0 | 0.0 | 0.0 | 0.00 | 0.00 | 0.00 | 20 | 1011.7 |
| 20260903061550 | 90 | 0 | 0.0 | 0.0 | 0.00 | 0.00 | 0.00 | 20 | 1011.7 |
| 20260903061031 | 90 | 0 | 0.0 | 0.0 | 0.00 | 0.00 | 0.00 | 19 | 1011.6 |
| 20260903060532 | 91 | 0 | 0.0 | 0.0 | 0.00 | 0.00 | 0.00 | 19 | 1011.5 |
| 20260903060051 | 91 | 0 | 0.0 | 0.0 | 0.00 | 0.00 | 0.00 | 18 | 1011.5 |
| 20260903055534 | 91 | 0 | 0.0 | 0.0 | 0.00 | 0.00 | 0.00 | 19 | 1011.6 |
| 20260903055030 | 91 | 0 | 0.0 | 0.0 | 0.00 | 0.00 | 0.00 | 19 | 1011.6 |
| 20260903054556 | 91 | 0 | 0.0 | 0.0 | 0.00 | 0.00 | 0.00 | 19 | 1011.6 |
| 20260903054028 | 91 | 0 | 0.0 | 0.0 | 0.00 | 0.00 | 0.00 | 19 | 1011.5 |
| 20260903053529 | 91 | 0 | 0.0 | 0.0 | 0.00 | 0.00 | 0.00 | 19 | 1011.4 |
| 20260903053045 | 92 | 0 | 0.0 | 0.0 | 0.00 | 0.00 | 0.00 | 19 | 1011.5 |
| 20260903052531 | 92 | 0 | 0.0 | 0.0 | 0.00 | 0.00 | 0.00 | 19 | 1011.6 |
| 20260903052032 | 92 | 0 | 0.0 | 0.0 | 0.00 | 0.00 | 0.00 | 20 | 1011.6 |
| 20260903051555 | 92 | 0 | 0.0 | 0.0 | 0.00 | 0.00 | 0.00 | 20 | 1011.6 |
| 20260903051030 | 92 | 0 | 0.0 | 0.0 | 0.00 | 0.00 | 0.00 | 20 | 1011.7 |
| 20260903050530 | 92 | 0 | 0.0 | 0.0 | 0.00 | 0.00 | 0.00 | 19 | 1011.5 |
| 20260903050118 | 93 | 0 | 0.0 | 0.0 | 0.00 | 0.00 | 0.00 | 19 | 1011.6 |
| 20260903045532 | 93 | 0 | 0.0 | 0.0 | 0.00 | 0.00 | 0.00 | 19 | 1011.5 |
| 20260903045031 | 93 | 0 | 0.0 | 0.0 | 0.00 | 0.00 | 0.00 | 19 | 1011.5 |
| 20260903044547 | 93 | 0 | 0.0 | 0.0 | 0.00 | 0.00 | 0.00 | 20 | 1011.5 |
| 20260903044031 | 93 | 0 | 0.0 | 0.0 | 0.00 | 0.00 | 0.00 | 21 | 1011.5 |
| 20260903043531 | 94 | 0 | 0.0 | 0.0 | 0.00 | 0.00 | 0.00 | 21 | 1011.5 |
| 20260903043058 | 94 | 0 | 0.0 | 0.0 | 0.00 | 0.00 | 0.00 | 21 | 1011.5 |
| 20260903042530 | 94 | 0 | 0.0 | 0.0 | 0.00 | 0.00 | 0.00 | 21 | 1011.3 |
| 20260903042031 | 94 | 0 | 0.0 | 0.0 | 0.00 | 0.00 | 0.00 | 21 | 1011.4 |
| 20260903041556 | 94 | 0 | 0.0 | 0.0 | 0.00 | 0.00 | 0.00 | 21 | 1011.4 |
| 20260903041029 | 94 | 0 | 0.0 | 0.0 | 0.00 | 0.00 | 0.00 | 23 | 1011.3 |
| 20260903040530 | 95 | 0 | 0.0 | 0.0 | 0.00 | 0.00 | 0.00 | 26 | 1011.3 |
| 20260903040059 | 95 | 0 | 0.0 | 0.0 | 0.00 | 0.00 | 0.00 | 27 | 1011.3 |
| 20260903035530 | 95 | 0 | 0.0 | 0.0 | 0.00 | 0.00 | 0.00 | 27 | 1011.2 |
| 20260903035030 | 95 | 0 | 0.0 | 0.0 | 0.00 | 0.00 | 0.00 | 27 | 1011.0 |
| 20260903034549 | 96 | 0 | 0.0 | 0.0 | 0.00 | 0.00 | 0.00 | 27 | 1011.2 |
| 20260903034029 | 96 | 0 | 0.0 | 0.0 | 0.00 | 0.00 | 0.00 | 28 | 1011.0 |
| 20260903033533 | 96 | 0 | 0.0 | 0.0 | 0.00 | 0.00 | 0.00 | 27 | 1010.9 |
| 20260903033046 | 96 | 0 | 0.0 | 0.0 | 0.00 | 0.00 | 0.00 | 27 | 1011.0 |
| 20260903032529 | 96 | 0 | 0.0 | 0.0 | 0.00 | 0.00 | 0.00 | 28 | 1010.9 |
| 20260903032034 | 96 | 0 | 0.0 | 0.0 | 0.00 | 0.00 | 0.00 | 28 | 1011.0 |
| 20260903031546 | 96 | 0 | 0.0 | 0.0 | 0.00 | 0.00 | 0.00 | 27 | 1010.9 |
| 20260903031031 | 97 | 0 | 0.0 | 0.0 | 0.00 | 0.00 | 0.00 | 27 | 1010.8 |
| 20260903030530 | 97 | 0 | 0.0 | 0.0 | 0.00 | 0.00 | 0.00 | 27 | 1010.8 |
| 20260903030055 | 97 | 0 | 0.0 | 0.0 | 0.00 | 0.00 | 0.00 | 27 | 1010.7 |
| 20260903025530 | 97 | 0 | 0.0 | 0.0 | 0.00 | 0.00 | 0.00 | 27 | 1010.6 |
| 20260903025029 | 97 | 0 | 0.0 | 1.0 | 0.00 | 0.00 | 0.00 | 27 | 1010.6 |
| 20260903024550 | 97 | 0 | 0.0 | 1.0 | 0.00 | 0.00 | 0.00 | 26 | 1010.5 |
| 20260903024029 | 97 | 0 | 0.0 | 0.0 | 0.00 | 0.00 | 0.00 | 26 | 1010.6 |
| 20260903023531 | 97 | 0 | 0.0 | 0.0 | 0.00 | 0.00 | 0.00 | 26 | 1010.5 |
| 20260903023046 | 97 | 0 | 0.0 | 0.0 | 0.00 | 0.00 | 0.00 | 26 | 1010.5 |
| 20260903022530 | 98 | 0 | 0.0 | 0.0 | 0.00 | 0.00 | 0.00 | 26 | 1010.4 |
| 20260903022031 | 98 | 0 | 0.0 | 0.0 | 0.00 | 0.00 | 0.00 | 25 | 1010.3 |
| 20260903021547 | 98 | 0 | 0.0 | 0.0 | 0.00 | 0.00 | 0.00 | 25 | 1010.4 |
| 20260903021030 | 98 | 0 | 0.0 | 1.0 | 0.00 | 0.00 | 0.00 | 24 | 1010.3 |
| 20260903020528 | 98 | 0 | 0.0 | 1.0 | 0.00 | 0.00 | 0.00 | 24 | 1010.2 |
| 20260903020054 | 98 | 0 | 0.0 | 1.0 | 0.00 | 0.00 | 0.00 | 23 | 1010.3 |
| 20260903015531 | 99 | 0 | 0.0 | 1.0 | 0.00 | 0.00 | 0.00 | 23 | 1010.3 |
| 20260903015035 | 99 | 0 | 0.0 | 1.0 | 0.00 | 0.00 | 0.00 | 23 | 1010.2 |
| 20260903014553 | 99 | 0 | 0.0 | 1.0 | 0.00 | 0.00 | 0.00 | 23 | 1010.2 |
| 20260903014031 | 99 | 0 | 0.0 | 1.0 | 0.00 | 0.00 | 0.00 | 24 | 1010.1 |
| 20260903013529 | 99 | 0 | 0.0 | 1.0 | 0.00 | 0.00 | 0.00 | 24 | 1010.1 |
| 20260903013046 | 99 | 0 | 0.0 | 1.0 | 0.00 | 0.00 | 0.00 | 25 | 1010.1 |
| 20260903012534 | 99 | 0 | 0.0 | 1.0 | 0.00 | 0.00 | 0.00 | 24 | 1010.0 |
| 20260903012030 | 99 | 0 | 0.0 | 1.0 | 0.00 | 0.00 | 0.00 | 24 | 1010.1 |
| 20260903011559 | 99 | 0 | 0.0 | 0.0 | 0.00 | 0.00 | 0.00 | 23 | 1010.0 |
| 20260903011030 | 99 | 0 | 0.0 | 7.0 | 0.00 | 0.00 | 0.00 | 22 | 1010.1 |
| 20260903010531 | 99 | 0 | 0.0 | 7.0 | 0.00 | 0.00 | 0.00 | 22 | 1009.9 |
| 20260903010044 | 99 | 99 | 0.0 | 7.0 | 0.00 | 0.00 | 0.00 | 22 | 1009.9 |
| 20260903005530 | 100 | 0 | 0.0 | 6.0 | 0.00 | 0.00 | 0.00 | 22 | 1009.9 |
| 20260903005029 | 100 | 0 | 0.0 | 6.0 | 0.00 | 0.00 | 0.00 | 22 | 1009.9 |
| 20260903004553 | 100 | 113 | 0.0 | 4.0 | 0.00 | 0.00 | 0.00 | 22 | 1009.9 |
| 20260903004031 | 101 | 0 | 0.0 | 0.0 | 0.00 | 0.00 | 0.00 | 22 | 1010.0 |
| 20260903003531 | 101 | 0 | 0.0 | 0.0 | 0.00 | 0.00 | 0.00 | 21 | 1010.0 |
| 20260903003048 | 101 | 0 | 0.0 | 8.0 | 0.00 | 0.00 | 0.00 | 21 | 1010.0 |
| 20260903002531 | 101 | 0 | 0.0 | 8.0 | 0.00 | 0.00 | 0.00 | 21 | 1010.0 |
| 20260903002029 | 101 | 0 | 2.0 | 6.0 | 0.00 | 0.00 | 0.00 | 21 | 1009.7 |
| 20260903001555 | 101 | 0 | 0.0 | 8.0 | 0.00 | 0.00 | 0.00 | 21 | 1010.0 |
| 20260903001033 | 100 | 0 | 0.0 | 8.0 | 0.00 | 0.00 | 0.00 | 20 | 1010.1 |
| 20260903000529 | 101 | 0 | 0.0 | 3.0 | 0.00 | 0.00 | 0.00 | 20 | 1010.0 |
| 20260903000057 | 101 | 0 | 0.0 | 3.0 | 0.00 | 0.00 | 0.00 | 21 | 1010.1 |
| 20260902235529 | 101 | 0 | 0.0 | 4.0 | 0.00 | 0.00 | 0.00 | 20 | 1010.0 |
| 20260902235029 | 101 | 0 | 1.0 | 4.0 | 0.00 | 0.00 | 0.00 | 19 | 1010.2 |
| 20260902234552 | 102 | 0 | 0.0 | 2.0 | 0.00 | 0.00 | 0.00 | 19 | 1010.2 |
| 20260902234030 | 102 | 0 | 0.0 | 0.0 | 0.00 | 0.00 | 0.00 | 21 | 1010.2 |